Starlink 32595

operational
NORAD ID: 62037 Int'l Des: 2024-216 Owner: SPXS Country: US Constellation: starlink
LEOCIRCULAR

About Starlink 32595

Description loading...

Live Position

Loading 3D Globe...

Upcoming Passes

Altitude History

Altitude vs Time

uPlot chart will show altitude changes over time

Two-Line Element Set

1 62037U 24216F 25304.62445081 .00029259 00000-0 10690-2 0 9992
2 62037 43.0045 272.4086 0000278 246.7242 113.3580 15.27568462 54061
Epoch: Oct 31, 2025 • Age: 26 hours

Current Status

Altitude 494.0 km
Velocity 7.62 km/s
Sub-Earth Point -38.06°S, 92.42°W
Launch Date Nov 21, 2024
Age 0.9 years
Type internet

Technical Details

Classification Payload
Mass 730.00 kg
Dry Mass 700.00 kg
Total Mass 730.00 kg
Length 0.30 m
Diameter 4.10 m
Span 29.00 m
Shape Box + pan
Manufacturer SPXS
Bus Type Starlink V2M
Phase Status In Orbit
Owner/State SPXS/US

Large Constellations

Loading constellations...